Location: Newark
(26.8229°N, 81.7649°W)
Time: 11:23:39
(UTC+00:00)

Hubble Space Telescope - Pass Details

Date: 02 February 2020
Orbit: 536 x 540 km, 28.5° (Epoch: 23 February)

Event Time Altitude Azimuth Distance (km) Brightness Sun altitude
Exits shadow 11:26:06 15° 274° (W) 1,501 2.4 -10.7°
Maximum altitude 11:29:28 70° 357° (N) 568 0.8 -10.0°
Drops below altitude 10° 11:33:35 10° 81° (E) 1,778 4.6 -9.1°
Sets 11:35:51 0° 84° (E) 2,669 5.8 -8.6°
